GLONASS-K 1

Last updated on Oct. 24, 2020, 5:54 a.m. UTC

1 37372U 11009A   20297.50482976 -.00000090  00000-0  00000-0 0  9994
2 37372  65.8955  23.4837 0010082 220.8321  88.5233  2.13107538 75133
UTC
Height (km)
Latitude
Longitude
Inclination
Orbital Period
UTC large
Height (km)
Speed (km/s)
/
Latitude / Longitude
Inclination (degrees)
Orbital Period (minutes)
Azimuth
Elevation
Range (km)
Doppler Factor
iOS Compass Heading
iOS Angle

Next 30 passes for location: Hong Kong

Rise time Rise Azimuth (degrees) Set time Set Azimuth (degrees) Duration Max altitude (degrees)

No matching passes for this satellites